クリステンセン彗星

422P/Christensen (2022)

English version
Home page
Updated on December 18, 2022

---------------------------------------------------------------------

・ プロフィール

符号 422P/2021 L1
検出日 2021年6月5日
検出光度 18.6等
検出者 C. Jacques (Belo Horizonte, Brazil)

・ 写真集

・ 軌道要素

Epoch 2022 Aug. 9.0 TT = JDT 2459800.5
T 2022 Jan. 13.63362 TT                                 Rudenko
q   3.1048972            (2000.0)            P               Q
n   0.06208411     Peri.  305.13089     +0.83622050     +0.40052436
a   6.3165860      Node    36.02459     +0.04985835     +0.62470704
e   0.5084533      Incl.   39.56175     -0.54612217     +0.67031437
P  15.9
>From 265 observations 2006 Sept. 22-2022 Nov. 3, mean residual 0".7.

・ 光度変化

        m1 = 0.0 + 5 logΔ + 30 log r(t + 80)

---------------------------------------------------------------------

軌道要素はM.P.E.C. 2022-V95に掲載されたものです。
光度グラフはComet for Windowsで作成したものです。

---------------------------------------------------------------------

Copyright(C) Seiichi Yoshida (comet@aerith.net). All rights reserved.